QPF
0.01 0.01 0.01 0.00 0.00 0.00 0.00 0.00 0.00 0.00 0.00 0.00 0.00 0.00 0.00 0.00 0.00 0.00 0.01 0.01 0.01 0.01 0.01 0.01 0.01 0.01 0.01 0.01 0.02 0.03 0.03 0.05 0.06 0.07 0.09 0.10 0.11 0.12
0.00 0.00 0.00 0.00 0.00 0.00 0.00 0.00 0.00 0.00 0.00 0.00 0.00 0.00 0.00 0.00 0.00 0.00 0.01 0.01 0.01 0.01 0.01 0.01 0.02 0.02 0.02 0.02 0.02 0.02 0.03 0.04 0.05 0.06 0.07 0.07 0.08 0.08
0.00 0.00 0.00 0.00 0.00 0.00 0.00 0.00 0.00 0.00 0.00 0.00 0.00 0.00 0.00 0.00 0.00 0.00 0.01 0.01 0.01 0.01 0.01 0.01 0.01 0.01 0.01 0.01 0.01 0.02 0.02 0.02 0.03 0.04 0.05 0.05 0.05 0.06
0.00 0.00 0.00 0.00 0.00 0.00 0.00 0.00 0.00 0.00 0.00 0.00 0.00 0.00 0.00 0.00 0.00 0.00 0.00 0.00 0.01 0.00 0.00 0.00 0.00 0.01 0.01 0.01 0.01 0.01 0.01 0.02 0.02 0.02 0.02 0.02 0.03 0.03
0.00 0.00 0.00 0.00 0.00 0.00 0.00 0.00 0.00 0.00 0.00 0.00 0.00 0.00 0.00 0.00 0.00 0.00 0.00 0.01 0.00 0.00 0.00 0.00 0.00 0.00 0.00 0.00 0.00 0.00 0.00 0.00 0.00 0.00 0.01 0.01 0.01 0.01
0.00 0.00 0.00 0.00 0.00 0.00 0.00 0.00 0.00 0.01 0.00 0.00 0.00 0.00 0.01 0.01 0.01 0.01 0.01 0.02 0.01 0.00 0.01 0.00 0.00 0.00 0.00 0.00 0.00 0.00 0.00 0.00 0.00 0.00 0.00 0.00 0.00 0.00
0.00 0.00 0.00 0.00 0.00 0.00 0.00 0.00 0.00 0.00 0.01 0.01 0.01 0.02 0.02 0.03 0.02 0.01 0.02 0.02 0.03 0.02 0.02 0.02 0.03 0.05 0.04 0.02 0.01 0.01 0.00 0.00 0.00 0.00 0.00 0.00 0.00 0.00
0.01 0.01 0.00 0.00 0.00 0.00 0.00 0.00 0.00 0.00 0.00 0.01 0.02 0.03 0.04 0.04 0.03 0.02 0.03 0.03 0.04 0.03 0.03 0.05 0.05 0.06 0.05 0.03 0.01 0.01 0.00 0.00 0.00 0.00 0.00 0.00 0.00 0.00
0.01 0.01 0.01 0.00 0.00 0.00 0.00 0.00 0.01 0.00 0.00 0.00 0.01 0.03 0.03 0.04 0.02 0.02 0.04 0.04 0.04 0.04 0.04 0.06 0.05 0.06 0.03 0.01 0.00 0.00 0.00 0.00 0.00 0.00 0.00 0.00 0.00 0.00
0.01 0.01 0.01 0.01 0.00 0.00 0.00 0.02 0.04 0.02 0.01 0.00 0.01 0.01 0.01 0.01 0.01 0.01 0.03 0.05 0.08 0.07 0.05 0.06 0.05 0.05 0.03 0.03 0.00 0.00 0.00 0.00 0.00 0.00 0.00 0.00 0.00 0.00
0.01 0.00 0.01 0.01 0.00 0.00 0.01 0.04 0.05 0.04 0.01 0.00 0.00 0.00 0.00 0.00 0.00 0.01 0.04 0.06 0.07 0.07 0.05 0.04 0.05 0.04 0.05 0.05 0.02 0.00 0.00 0.00 0.00 0.00 0.00 0.00 0.00 0.00
0.03 0.02 0.00 0.00 0.00 0.00 0.01 0.02 0.02 0.02 0.02 0.03 0.04 0.03 0.02 0.02 0.01 0.02 0.05 0.06 0.06 0.06 0.04 0.04 0.05 0.05 0.07 0.06 0.05 0.03 0.02 0.01 0.00 0.00 0.00 0.00 0.00 0.00
0.03 0.02 0.01 0.00 0.00 0.00 0.00 0.00 0.00 0.00 0.01 0.04 0.05 0.05 0.04 0.04 0.04 0.03 0.05 0.05 0.04 0.04 0.03 0.03 0.05 0.05 0.06 0.06 0.05 0.04 0.04 0.02 0.02 0.02 0.01 0.00 0.00 0.00
0.02 0.01 0.01 0.00 0.00 0.00 0.00 0.00 0.00 0.00 0.02 0.04 0.04 0.04 0.03 0.02 0.02 0.02 0.02 0.02 0.04 0.03 0.03 0.03 0.05 0.05 0.05 0.06 0.05 0.04 0.03 0.02 0.02 0.02 0.03 0.02 0.01 0.01
0.01 0.00 0.00 0.00 0.00 0.00 0.00 0.00 0.01 0.01 0.02 0.03 0.03 0.03 0.02 0.01 0.02 0.02 0.01 0.02 0.02 0.01 0.01 0.01 0.03 0.04 0.05 0.05 0.05 0.04 0.03 0.02 0.02 0.02 0.03 0.03 0.02 0.02
0.01 0.01 0.00 0.00 0.00 0.00 0.00 0.01 0.01 0.01 0.01 0.02 0.02 0.02 0.01 0.01 0.01 0.01 0.02 0.02 0.02 0.02 0.01 0.00 0.01 0.03 0.04 0.04 0.05 0.04 0.03 0.03 0.02 0.02 0.03 0.03 0.02 0.02
0.00 0.01 0.02 0.01 0.01 0.01 0.01 0.01 0.00 0.00 0.01 0.01 0.01 0.01 0.01 0.01 0.01 0.01 0.01 0.02 0.03 0.03 0.03 0.02 0.01 0.01 0.01 0.02 0.02 0.03 0.03 0.03 0.02 0.02 0.04 0.05 0.04 0.02
0.00 0.01 0.02 0.01 0.01 0.00 0.00 0.00 0.00 0.00 0.00 0.01 0.00 0.00 0.00 0.01 0.01 0.01 0.01 0.01 0.02 0.02 0.02 0.02 0.02 0.02 0.03 0.02 0.01 0.00 0.01 0.02 0.02 0.02 0.03 0.04 0.04 0.02
0.00 0.01 0.01 0.00 0.00 0.00 0.00 0.00 0.00 0.00 0.00 0.00 0.00 0.00 0.00 0.00 0.01 0.00 0.00 0.00 0.01 0.01 0.01 0.01 0.01 0.02 0.03 0.03 0.02 0.00 0.00 0.01 0.01 0.01 0.02 0.01 0.02 0.01
0.00 0.00 0.00 0.00 0.00 0.00 0.00 0.00 0.00 0.00 0.00 0.00 0.00 0.00 0.00 0.00 0.00 0.00 0.00 0.00 0.00 0.01 0.00 0.01 0.01 0.01 0.01 0.02 0.02 0.01 0.00 0.00 0.01 0.01 0.01 0.00 0.00 0.00
0.00 0.00 0.00 0.00 0.00 0.00 0.00 0.00 0.00 0.00 0.00 0.00 0.00 0.00 0.00 0.00 0.00 0.00 0.00 0.00 0.00 0.00 0.00 0.00 0.00 0.00 0.00 0.00 0.01 0.01 0.00 0.00 0.00 0.00 0.00 0.00 0.00 0.01
0.00 0.00 0.00 0.00 0.00 0.00 0.00 0.00 0.00 0.00 0.00 0.00 0.00 0.00 0.00 0.00 0.00 0.00 0.00 0.00 0.00 0.00 0.00 0.00 0.00 0.00 0.00 0.01 0.01 0.01 0.01 0.00 0.00 0.00 0.00 0.00 0.00 0.00
0.00 0.00 0.00 0.00 0.00 0.00 0.00 0.00 0.00 0.00 0.00 0.00 0.00 0.00 0.00 0.00 0.00 0.00 0.00 0.00 0.00 0.00 0.00 0.00 0.00 0.00 0.00 0.00 0.00 0.00 0.00 0.00 0.00 0.00 0.00 0.00 0.00 0.00
MSLP
1020.42 1020.58 1020.70 1020.79 1020.87 1020.94 1021.02 1021.13 1021.28 1021.47 1021.69 1021.94 1022.19 1022.42 1022.62 1022.78 1022.89 1022.98 1023.05 1023.12 1023.18 1023.27 1023.36 1023.45 1023.54 1023.60 1023.63 1023.62 1023.55 1023.44 1023.27 1023.06 1022.81 1022.51 1022.19 1021.83 1021.44 1021.03
1020.97 1021.09 1021.17 1021.20 1021.20 1021.19 1021.20 1021.24 1021.34 1021.48 1021.66 1021.87 1022.08 1022.27 1022.42 1022.54 1022.61 1022.66 1022.69 1022.73 1022.79 1022.88 1023.00 1023.13 1023.27 1023.39 1023.48 1023.53 1023.52 1023.44 1023.31 1023.12 1022.87 1022.57 1022.23 1021.85 1021.43 1020.99
1021.41 1021.52 1021.58 1021.59 1021.55 1021.51 1021.47 1021.48 1021.53 1021.63 1021.77 1021.93 1022.09 1022.23 1022.34 1022.39 1022.41 1022.40 1022.39 1022.39 1022.42 1022.50 1022.62 1022.77 1022.93 1023.09 1023.23 1023.33 1023.37 1023.34 1023.25 1023.09 1022.86 1022.58 1022.23 1021.84 1021.41 1020.95
1021.76 1021.88 1021.95 1021.96 1021.93 1021.88 1021.84 1021.82 1021.85 1021.92 1022.02 1022.14 1022.26 1022.34 1022.39 1022.39 1022.34 1022.27 1022.20 1022.15 1022.14 1022.18 1022.28 1022.42 1022.58 1022.75 1022.92 1023.04 1023.12 1023.14 1023.08 1022.96 1022.77 1022.51 1022.19 1021.80 1021.37 1020.90
1022.07 1022.21 1022.31 1022.35 1022.34 1022.31 1022.28 1022.27 1022.28 1022.33 1022.41 1022.49 1022.55 1022.59 1022.58 1022.52 1022.42 1022.29 1022.16 1022.06 1021.99 1021.98 1022.03 1022.13 1022.26 1022.42 1022.58 1022.72 1022.81 1022.86 1022.84 1022.76 1022.60 1022.38 1022.08 1021.72 1021.30 1020.83
1022.39 1022.55 1022.67 1022.74 1022.77 1022.78 1022.76 1022.76 1022.78 1022.81 1022.85 1022.90 1022.92 1022.91 1022.85 1022.75 1022.60 1022.42 1022.24 1022.08 1021.96 1021.89 1021.88 1021.92 1022.01 1022.13 1022.26 1022.38 1022.48 1022.54 1022.55 1022.50 1022.38 1022.19 1021.93 1021.58 1021.18 1020.71
1022.74 1022.91 1023.05 1023.15 1023.21 1023.24 1023.25 1023.25 1023.26 1023.27 1023.29 1023.30 1023.28 1023.23 1023.14 1023.00 1022.82 1022.61 1022.40 1022.19 1022.02 1021.90 1021.82 1021.80 1021.83 1021.89 1021.98 1022.07 1022.16 1022.22 1022.24 1022.21 1022.12 1021.96 1021.73 1021.41 1021.02 1020.57
1023.11 1023.28 1023.42 1023.54 1023.62 1023.66 1023.68 1023.68 1023.67 1023.66 1023.64 1023.61 1023.56 1023.47 1023.36 1023.20 1023.00 1022.78 1022.55 1022.32 1022.12 1021.95 1021.82 1021.73 1021.69 1021.69 1021.73 1021.78 1021.83 1021.88 1021.91 1021.90 1021.83 1021.70 1021.49 1021.20 1020.83 1020.40
1023.47 1023.63 1023.77 1023.89 1023.97 1024.00 1024.01 1023.99 1023.96 1023.91 1023.85 1023.78 1023.69 1023.58 1023.44 1023.28 1023.08 1022.86 1022.64 1022.40 1022.18 1021.98 1021.80 1021.67 1021.57 1021.51 1021.48 1021.49 1021.51 1021.54 1021.56 1021.56 1021.51 1021.40 1021.22 1020.96 1020.62 1020.21
1023.80 1023.94 1024.06 1024.17 1024.23 1024.25 1024.24 1024.18 1024.10 1024.01 1023.90 1023.78 1023.66 1023.52 1023.38 1023.21 1023.03 1022.82 1022.61 1022.38 1022.16 1021.94 1021.74 1021.56 1021.41 1021.30 1021.22 1021.18 1021.17 1021.18 1021.19 1021.19 1021.15 1021.07 1020.92 1020.69 1020.39 1020.01
1024.06 1024.18 1024.29 1024.37 1024.41 1024.41 1024.36 1024.26 1024.13 1023.98 1023.82 1023.66 1023.50 1023.34 1023.18 1023.01 1022.84 1022.66 1022.46 1022.25 1022.03 1021.81 1021.59 1021.38 1021.19 1021.04 1020.92 1020.84 1020.80 1020.78 1020.78 1020.78 1020.76 1020.70 1020.58 1020.39 1020.14 1019.80
1024.26 1024.36 1024.45 1024.51 1024.53 1024.49 1024.40 1024.26 1024.09 1023.89 1023.68 1023.47 1023.27 1023.08 1022.91 1022.74 1022.58 1022.41 1022.22 1022.03 1021.82 1021.59 1021.36 1021.13 1020.92 1020.73 1020.58 1020.47 1020.40 1020.37 1020.36 1020.36 1020.35 1020.31 1020.22 1020.08 1019.87 1019.61
1024.41 1024.49 1024.56 1024.59 1024.58 1024.52 1024.39 1024.22 1024.00 1023.76 1023.51 1023.26 1023.03 1022.82 1022.62 1022.45 1022.28 1022.12 1021.94 1021.75 1021.54 1021.32 1021.08 1020.84 1020.61 1020.41 1020.23 1020.09 1020.00 1019.95 1019.92 1019.92 1019.92 1019.90 1019.86 1019.76 1019.61 1019.41
1024.53 1024.58 1024.63 1024.64 1024.60 1024.51 1024.36 1024.16 1023.92 1023.65 1023.37 1023.09 1022.83 1022.60 1022.39 1022.20 1022.02 1021.85 1021.67 1021.48 1021.27 1021.04 1020.80 1020.55 1020.31 1020.08 1019.89 1019.74 1019.62 1019.55 1019.52 1019.51 1019.51 1019.51 1019.50 1019.45 1019.36 1019.22
1024.63 1024.65 1024.66 1024.64 1024.58 1024.47 1024.31 1024.10 1023.85 1023.57 1023.28 1022.99 1022.71 1022.46 1022.23 1022.02 1021.82 1021.63 1021.44 1021.24 1021.02 1020.78 1020.54 1020.29 1020.04 1019.81 1019.60 1019.43 1019.30 1019.21 1019.16 1019.14 1019.14 1019.15 1019.16 1019.14 1019.11 1019.04
1024.70 1024.67 1024.65 1024.60 1024.52 1024.40 1024.23 1024.02 1023.78 1023.51 1023.23 1022.94 1022.66 1022.40 1022.15 1021.92 1021.70 1021.49 1021.27 1021.05 1020.82 1020.58 1020.33 1020.07 1019.82 1019.59 1019.37 1019.19 1019.04 1018.94 1018.86 1018.83 1018.82 1018.82 1018.84 1018.85 1018.85 1018.84
1024.71 1024.64 1024.57 1024.49 1024.40 1024.27 1024.12 1023.93 1023.72 1023.47 1023.22 1022.94 1022.67 1022.41 1022.15 1021.90 1021.65 1021.41 1021.17 1020.93 1020.68 1020.42 1020.17 1019.91 1019.66 1019.43 1019.21 1019.01 1018.85 1018.72 1018.62 1018.56 1018.52 1018.52 1018.53 1018.55 1018.58 1018.61
1024.65 1024.54 1024.43 1024.32 1024.22 1024.11 1023.98 1023.83 1023.65 1023.45 1023.23 1022.99 1022.73 1022.47 1022.20 1021.92 1021.65 1021.38 1021.11 1020.84 1020.58 1020.31 1020.05 1019.80 1019.55 1019.31 1019.08 1018.88 1018.69 1018.53 1018.40 1018.31 1018.24 1018.21 1018.21 1018.23 1018.27 1018.32
1024.52 1024.36 1024.23 1024.12 1024.02 1023.94 1023.84 1023.74 1023.61 1023.46 1023.28 1023.07 1022.84 1022.57 1022.29 1021.99 1021.69 1021.38 1021.08 1020.78 1020.50 1020.22 1019.95 1019.69 1019.44 1019.20 1018.97 1018.74 1018.54 1018.35 1018.18 1018.05 1017.95 1017.89 1017.86 1017.87 1017.91 1017.96
1024.33 1024.16 1024.03 1023.93 1023.86 1023.81 1023.76 1023.71 1023.64 1023.54 1023.40 1023.21 1022.99 1022.72 1022.42 1022.09 1021.75 1021.41 1021.07 1020.74 1020.43 1020.13 1019.85 1019.58 1019.33 1019.08 1018.83 1018.59 1018.36 1018.14 1017.94 1017.77 1017.63 1017.53 1017.48 1017.46 1017.49 1017.54
1024.14 1023.99 1023.88 1023.81 1023.78 1023.78 1023.79 1023.79 1023.77 1023.71 1023.60 1023.43 1023.20 1022.92 1022.59 1022.22 1021.84 1021.45 1021.06 1020.70 1020.35 1020.03 1019.74 1019.46 1019.19 1018.93 1018.67 1018.42 1018.16 1017.91 1017.68 1017.47 1017.30 1017.16 1017.07 1017.03 1017.04 1017.08
1024.00 1023.90 1023.84 1023.83 1023.85 1023.91 1023.97 1024.02 1024.04 1024.00 1023.91 1023.74 1023.49 1023.18 1022.80 1022.39 1021.95 1021.51 1021.07 1020.66 1020.28 1019.94 1019.62 1019.32 1019.05 1018.78 1018.50 1018.23 1017.96 1017.69 1017.42 1017.18 1016.98 1016.81 1016.69 1016.62 1016.60 1016.62
1023.97 1023.94 1023.95 1024.00 1024.09 1024.20 1024.31 1024.39 1024.43 1024.41 1024.30 1024.11 1023.83 1023.47 1023.05 1022.57 1022.08 1021.58 1021.10 1020.64 1020.23 1019.85 1019.52 1019.21 1018.92 1018.64 1018.36 1018.08 1017.79 1017.50 1017.22 1016.96 1016.73 1016.54 1016.39 1016.29 1016.23 1016.22
Thickness
5613 5612 5611 5610 5610 5609 5608 5606 5601 5597 5593 5590 5587 5584 5580 5577 5574 5572 5569 5566 5564 5560 5557 5554 5551 5548 5545 5543 5541 5539 5537 5535 5534 5534 5534 5533 5533 5533
5600 5599 5598 5597 5597 5597 5596 5595 5591 5587 5582 5580 5577 5573 5569 5566 5563 5561 5559 5557 5553 5549 5546 5542 5539 5536 5533 5530 5527 5525 5523 5521 5519 5518 5518 5517 5517 5516
5588 5587 5585 5584 5584 5584 5583 5581 5578 5575 5570 5568 5567 5563 5559 5556 5554 5551 5550 5548 5544 5540 5536 5532 5528 5525 5522 5518 5515 5512 5510 5508 5506 5505 5504 5503 5502 5501
5576 5575 5573 5573 5571 5569 5569 5568 5565 5563 5559 5556 5554 5553 5550 5548 5545 5542 5541 5538 5535 5532 5527 5523 5519 5515 5512 5508 5505 5502 5499 5496 5494 5492 5491 5489 5487 5486
5565 5563 5561 5559 5557 5556 5556 5554 5553 5552 5549 5546 5544 5543 5541 5539 5536 5534 5532 5528 5527 5524 5520 5515 5511 5507 5503 5500 5496 5493 5490 5487 5484 5482 5479 5477 5475 5473
5553 5551 5549 5547 5544 5543 5544 5541 5540 5539 5538 5537 5535 5533 5531 5528 5526 5524 5521 5519 5518 5516 5513 5510 5506 5501 5497 5493 5489 5486 5482 5479 5476 5474 5471 5468 5466 5464
5543 5541 5539 5536 5533 5532 5531 5528 5528 5526 5526 5525 5524 5522 5519 5517 5515 5514 5511 5510 5509 5508 5505 5504 5501 5497 5492 5488 5484 5481 5477 5473 5471 5468 5465 5462 5459 5457
5533 5531 5529 5527 5524 5523 5521 5520 5518 5517 5515 5514 5514 5511 5510 5508 5507 5505 5503 5501 5500 5501 5499 5497 5496 5492 5489 5485 5481 5477 5473 5469 5466 5463 5460 5457 5454 5452
5523 5522 5522 5519 5516 5514 5514 5513 5512 5510 5507 5505 5504 5504 5503 5501 5499 5498 5496 5494 5493 5495 5494 5491 5491 5488 5486 5483 5479 5475 5470 5466 5463 5460 5457 5454 5451 5449
5515 5513 5511 5508 5505 5504 5505 5506 5507 5506 5503 5500 5500 5499 5498 5496 5494 5493 5492 5492 5492 5493 5492 5488 5487 5486 5484 5480 5476 5472 5469 5465 5461 5457 5454 5451 5449 5447
5507 5504 5502 5499 5496 5496 5498 5498 5499 5498 5498 5496 5496 5495 5495 5493 5491 5488 5488 5487 5487 5488 5489 5486 5484 5482 5481 5478 5475 5472 5468 5464 5460 5456 5453 5450 5447 5445
5499 5496 5493 5491 5490 5489 5489 5490 5490 5489 5490 5492 5493 5493 5493 5492 5490 5486 5485 5484 5483 5483 5485 5483 5481 5479 5477 5476 5475 5472 5469 5465 5461 5456 5453 5449 5446 5443
5493 5490 5486 5485 5484 5483 5483 5483 5482 5482 5484 5487 5489 5490 5491 5490 5489 5487 5485 5484 5481 5480 5482 5481 5478 5477 5475 5474 5474 5473 5470 5467 5463 5458 5454 5450 5446 5442
5485 5484 5482 5480 5479 5479 5479 5480 5480 5480 5482 5484 5485 5486 5486 5486 5486 5486 5486 5485 5484 5482 5482 5480 5478 5476 5475 5473 5472 5473 5471 5469 5465 5461 5457 5452 5447 5443
5479 5478 5477 5477 5476 5477 5477 5476 5476 5477 5479 5479 5480 5481 5483 5484 5485 5485 5485 5485 5485 5485 5484 5482 5480 5479 5477 5474 5473 5473 5471 5469 5467 5464 5460 5455 5451 5447
5474 5475 5475 5475 5474 5474 5474 5475 5475 5475 5475 5475 5477 5479 5481 5482 5482 5483 5482 5482 5482 5483 5485 5484 5483 5481 5479 5478 5476 5474 5472 5470 5468 5466 5462 5459 5456 5452
5468 5472 5474 5474 5474 5474 5474 5474 5474 5473 5473 5473 5474 5475 5477 5478 5479 5480 5481 5481 5480 5481 5482 5484 5485 5484 5483 5481 5478 5476 5474 5472 5470 5468 5465 5462 5459 5456
5466 5469 5471 5471 5470 5470 5470 5470 5470 5469 5469 5470 5471 5472 5473 5474 5476 5478 5479 5479 5479 5480 5481 5483 5484 5483 5482 5482 5480 5478 5476 5474 5473 5472 5470 5466 5463 5460
5465 5468 5468 5467 5466 5466 5466 5466 5466 5466 5466 5467 5468 5469 5471 5472 5474 5476 5477 5478 5479 5480 5482 5484 5484 5483 5480 5479 5481 5479 5477 5477 5475 5474 5472 5470 5467 5464
5468 5468 5466 5465 5464 5463 5463 5463 5463 5464 5464 5465 5466 5467 5469 5471 5472 5474 5476 5478 5479 5481 5483 5485 5485 5485 5483 5481 5482 5484 5482 5480 5478 5476 5474 5474 5470 5466
5468 5467 5465 5464 5462 5462 5462 5462 5462 5462 5463 5464 5465 5466 5468 5469 5472 5474 5477 5479 5480 5482 5484 5486 5488 5489 5488 5487 5486 5487 5487 5485 5483 5479 5477 5475 5472 5470
5467 5465 5464 5463 5462 5461 5461 5461 5461 5462 5462 5463 5464 5465 5467 5469 5471 5474 5477 5479 5482 5483 5485 5488 5491 5492 5491 5490 5489 5489 5489 5489 5488 5484 5481 5478 5474 5472
5467 5465 5465 5464 5462 5461 5460 5460 5460 5460 5460 5460 5461 5463 5466 5469 5472 5475 5478 5481 5483 5484 5485 5487 5490 5492 5493 5494 5493 5492 5492 5492 5491 5487 5485 5485 5481 5478